Wetbulb
47.38 46.87 46.43 45.99 45.72 45.38 45.18 44.95 44.82 44.85 44.84 44.63 44.20 43.90 43.66 43.47 43.06 42.93 42.82 42.66 42.49 42.45 42.45 42.42 42.35 42.34 42.26 42.14 41.84 41.71 41.65 41.66 41.67 41.75 41.71 41.63 41.71 41.81 41.79 41.86 41.79 41.67 41.58 41.45 41.57 41.54 41.43 41.34 41.36 41.61 41.91 42.24 42.05 41.93 41.94 42.23 41.93 41.48 41.03 40.77 40.74 40.88 41.02 41.05 41.05 41.11 41.13 41.11 41.28
45.96 45.70 45.46 45.02 44.75 44.56 44.39 44.14 44.10 44.07 44.10 44.10 43.82 43.47 43.14 42.89 42.66 42.44 42.31 42.24 42.17 42.17 42.20 42.17 42.27 42.07 41.87 41.62 41.59 41.44 41.29 41.17 41.20 41.29 41.38 41.33 41.46 41.53 41.54 41.42 41.36 41.30 41.20 41.16 41.11 41.03 40.94 40.88 40.85 40.98 41.21 41.49 41.27 41.04 41.18 41.71 41.62 40.96 40.32 40.13 40.30 40.49 40.56 40.51 40.63 40.74 40.86 40.83 41.03
45.00 44.79 44.64 44.37 44.01 43.72 43.42 43.21 43.23 43.28 43.28 43.40 43.28 42.99 42.75 42.43 42.26 42.07 42.01 42.01 41.96 41.91 41.81 41.69 41.93 41.74 41.44 41.26 41.30 41.22 41.10 40.94 40.91 40.94 41.01 41.04 41.10 41.04 40.97 41.03 40.92 40.88 40.85 40.87 40.76 40.64 40.57 40.45 40.43 40.56 40.59 40.61 40.45 40.30 40.34 40.72 40.58 40.15 39.72 39.61 39.91 40.10 40.11 40.01 40.28 40.51 40.63 40.54 40.69
44.29 43.95 43.65 43.29 42.99 42.83 42.67 42.59 42.56 42.58 42.66 42.77 42.72 42.56 42.33 42.10 42.05 41.96 41.86 41.80 41.62 41.43 41.37 41.30 41.60 41.55 41.43 41.04 40.83 40.79 40.79 40.77 40.64 40.59 40.60 40.67 40.70 40.64 40.58 40.53 40.36 40.38 40.40 40.49 40.48 40.44 40.29 40.13 40.16 40.18 40.14 40.12 39.86 39.80 39.85 40.00 39.91 39.68 39.42 39.52 39.68 39.71 39.71 39.76 40.09 40.24 40.31 40.27 40.52
43.64 43.43 43.13 42.81 42.46 42.40 42.45 42.36 42.14 42.14 42.20 42.32 42.13 41.98 41.83 41.79 41.69 41.65 41.49 41.31 40.98 40.86 40.90 40.98 41.18 41.20 41.01 40.71 40.38 40.30 40.37 40.42 40.42 40.37 40.31 40.25 40.35 40.30 40.21 40.00 39.96 39.92 39.96 40.12 40.11 40.10 39.99 39.75 39.75 39.83 39.85 39.73 39.60 39.57 39.53 39.68 39.40 39.14 39.12 39.29 39.45 39.51 39.58 39.62 39.84 40.04 40.13 40.05 40.17
42.92 42.88 42.80 42.68 42.31 42.13 42.11 42.10 41.92 41.88 41.80 41.93 41.44 41.23 41.09 41.04 40.97 40.83 40.69 40.57 40.57 40.56 40.61 40.48 40.38 40.26 40.17 40.13 40.01 39.95 39.95 40.04 40.19 40.10 39.95 39.85 39.90 39.86 39.72 39.64 39.62 39.58 39.62 39.57 39.63 39.68 39.67 39.42 39.27 39.42 39.47 39.37 39.34 39.40 39.43 39.34 38.90 38.71 38.68 38.65 39.08 39.33 39.45 39.46 39.59 39.79 39.82 39.74 39.77
42.44 42.33 42.20 42.04 41.94 41.75 41.71 41.70 41.75 41.67 41.53 41.39 40.83 40.52 40.45 40.59 40.48 40.41 40.27 40.34 40.27 40.33 40.26 40.18 39.93 39.82 39.74 39.74 39.62 39.60 39.61 39.62 39.73 39.71 39.58 39.54 39.49 39.38 39.31 39.25 39.25 39.22 39.18 39.21 39.14 39.13 39.10 39.08 38.83 38.82 38.92 38.85 38.67 38.84 39.00 39.01 38.57 38.28 38.09 38.06 38.66 39.09 39.35 39.53 39.70 39.71 39.61 39.46 39.39
42.11 41.91 41.75 41.60 41.45 41.27 41.16 41.10 41.11 40.97 40.77 40.55 40.30 40.06 39.93 40.11 40.05 40.06 39.99 40.03 39.89 39.96 39.94 39.99 39.78 39.58 39.44 39.44 39.34 39.24 39.19 39.12 39.12 39.23 39.21 39.20 39.03 38.91 38.85 38.86 38.78 38.79 38.80 38.92 38.74 38.62 38.64 38.66 38.53 38.46 38.43 38.34 38.15 38.20 38.44 38.61 38.37 38.05 37.84 37.79 38.33 38.80 39.30 39.53 39.80 39.71 39.49 39.26 39.14
41.69 41.60 41.54 41.40 41.17 40.94 40.76 40.62 40.53 40.26 40.05 39.81 39.73 39.63 39.58 39.65 39.76 39.75 39.62 39.46 39.52 39.66 39.72 39.62 39.42 39.30 39.16 39.07 39.01 39.01 38.95 38.81 38.72 38.72 38.78 38.80 38.55 38.43 38.40 38.46 38.32 38.32 38.43 38.59 38.46 38.38 38.25 38.27 38.20 38.11 38.00 37.86 37.72 37.79 38.08 38.22 37.95 37.70 37.62 37.67 38.02 38.42 38.95 39.33 39.44 39.40 39.24 39.08 38.81
41.13 41.06 40.98 40.82 40.59 40.53 40.50 40.33 40.15 39.87 39.60 39.41 39.30 39.22 39.14 39.11 39.37 39.40 39.36 39.32 39.55 39.48 39.34 39.17 39.05 38.91 38.77 38.76 38.74 38.75 38.70 38.67 38.56 38.46 38.38 38.40 38.21 38.11 38.06 38.02 37.94 37.87 37.95 38.12 38.22 38.15 38.01 37.85 37.74 37.69 37.67 37.67 37.49 37.55 37.71 37.86 37.62 37.38 37.34 37.48 37.79 38.16 38.49 38.91 39.10 39.13 38.97 38.80 38.56
40.66 40.66 40.58 40.35 40.09 40.12 40.15 39.88 39.80 39.67 39.40 39.29 39.18 39.13 39.09 38.98 39.10 39.14 39.34 39.56 39.32 38.98 38.86 38.95 38.77 38.56 38.44 38.53 38.50 38.43 38.39 38.47 38.39 38.18 38.06 37.92 37.89 37.80 37.77 37.73 37.69 37.56 37.52 37.68 37.88 37.85 37.66 37.44 37.30 37.17 37.20 37.20 37.34 37.33 37.32 37.34 37.22 37.13 37.07 37.40 37.78 37.93 38.06 38.40 38.67 38.70 38.65 38.57 38.38
40.17 40.22 40.24 40.16 40.06 39.98 39.84 39.62 39.50 39.31 39.14 38.96 39.01 39.02 39.01 38.98 38.95 39.01 39.10 39.04 38.63 38.54 38.63 38.80 38.63 38.40 38.25 38.27 38.24 38.24 38.18 38.14 38.01 37.88 37.74 37.66 37.67 37.63 37.55 37.54 37.45 37.35 37.30 37.44 37.60 37.53 37.30 37.03 36.81 36.64 36.56 36.75 36.95 37.04 36.95 36.92 36.87 36.77 36.89 37.26 37.55 37.62 37.61 37.79 38.17 38.40 38.46 38.47 38.24
39.84 39.80 39.75 39.78 39.74 39.60 39.44 39.32 39.23 39.00 38.80 38.62 38.73 38.84 38.86 38.78 38.67 38.77 38.72 38.45 38.30 38.32 38.53 38.66 38.58 38.36 38.18 37.99 38.07 38.06 38.00 37.90 37.78 37.65 37.61 37.45 37.48 37.35 37.22 37.19 37.22 37.07 37.10 37.25 37.36 37.21 36.91 36.71 36.51 36.26 36.04 36.15 36.37 36.59 36.64 36.61 36.62 36.56 36.71 36.96 37.10 37.20 37.30 37.52 37.84 38.04 38.13 38.11 37.79
39.40 39.36 39.30 39.39 39.31 39.25 39.14 38.97 38.87 38.69 38.52 38.32 38.48 38.54 38.60 38.54 38.43 38.45 38.34 38.21 38.13 38.13 38.31 38.32 38.31 38.21 38.05 37.89 37.86 37.73 37.67 37.67 37.64 37.44 37.28 37.14 37.19 37.09 36.94 36.93 36.87 36.87 36.90 37.01 37.06 36.93 36.66 36.35 36.26 36.09 35.88 35.75 35.89 36.18 36.47 36.58 36.58 36.63 36.74 36.77 36.76 36.94 37.08 37.30 37.59 37.72 37.74 37.60 37.34
38.88 38.89 38.91 39.02 38.87 38.86 38.74 38.60 38.48 38.35 38.19 38.00 38.12 38.17 38.26 38.24 38.16 38.14 38.06 37.95 37.88 37.98 38.07 37.93 37.83 37.92 37.97 37.87 37.68 37.56 37.47 37.51 37.37 37.18 36.95 36.81 36.85 36.77 36.64 36.54 36.60 36.59 36.62 36.60 36.64 36.61 36.51 36.27 36.11 35.94 35.75 35.58 35.69 35.97 36.26 36.54 36.72 36.83 36.91 36.91 36.94 36.93 37.07 37.25 37.44 37.50 37.30 37.20 36.90
38.35 38.35 38.45 38.44 38.44 38.37 38.28 38.17 38.15 38.03 37.88 37.80 37.82 37.77 37.79 37.78 37.94 37.94 37.73 37.55 37.69 37.76 37.73 37.50 37.47 37.60 37.76 37.76 37.60 37.41 37.33 37.25 37.09 36.92 36.66 36.45 36.38 36.36 36.30 36.27 36.30 36.24 36.25 36.15 36.15 36.22 36.29 36.30 36.14 35.98 35.78 35.62 35.73 35.94 36.22 36.54 36.82 36.96 37.11 37.19 37.18 37.21 37.25 37.28 37.28 37.23 37.14 36.97 36.72
37.80 37.75 37.89 37.85 37.75 37.75 37.75 37.84 37.85 37.75 37.66 37.65 37.56 37.49 37.53 37.48 37.54 37.49 37.34 37.19 37.22 37.21 37.12 37.03 37.21 37.26 37.30 37.33 37.43 37.29 37.18 36.97 36.84 36.61 36.47 36.16 36.12 36.04 36.01 36.03 36.05 36.07 36.03 35.89 35.74 35.76 35.87 36.05 36.07 36.02 35.93 35.84 35.95 36.23 36.48 36.72 36.85 37.03 37.25 37.32 37.36 37.36 37.36 37.40 37.32 37.22 37.06 36.93 36.68
37.26 37.24 37.33 37.28 37.22 37.26 37.40 37.51 37.55 37.40 37.33 37.39 37.43 37.44 37.45 37.38 37.21 37.16 37.14 37.15 37.00 36.78 36.50 36.60 36.92 36.98 37.00 36.91 37.02 37.06 36.95 36.69 36.48 36.40 36.27 36.14 36.07 35.87 35.89 35.91 35.99 36.01 35.94 35.80 35.65 35.57 35.60 35.71 35.83 35.92 36.01 36.09 36.31 36.56 36.77 36.97 37.07 37.21 37.28 37.36 37.44 37.44 37.44 37.48 37.44 37.34 37.14 36.89 36.71
36.83 36.78 36.76 36.70 36.78 36.90 37.01 37.00 37.00 36.97 37.00 37.17 37.21 37.21 37.25 37.11 36.97 36.89 36.81 36.92 36.73 36.52 36.31 36.28 36.51 36.71 36.74 36.66 36.74 36.73 36.64 36.59 36.31 36.16 36.13 36.07 36.04 35.97 35.84 35.81 35.86 35.87 35.84 35.74 35.63 35.66 35.62 35.59 35.67 35.79 35.90 36.16 36.38 36.67 36.88 37.09 37.09 37.23 37.30 37.30 37.38 37.45 37.49 37.53 37.58 37.47 37.29 37.04 36.82
36.23 36.25 36.15 36.23 36.41 36.63 36.77 36.73 36.76 36.76 36.86 37.00 36.90 36.83 36.80 36.80 36.69 36.54 36.40 36.39 36.46 36.39 36.29 36.11 36.21 36.30 36.40 36.47 36.37 36.40 36.39 36.50 36.28 36.09 35.95 36.07 35.93 35.86 35.75 35.71 35.69 35.73 35.74 35.74 35.70 35.66 35.59 35.50 35.54 35.73 35.88 36.06 36.27 36.49 36.71 36.93 37.03 37.11 37.18 37.21 37.36 37.44 37.48 37.52 37.52 37.49 37.38 37.19 36.97
35.73 35.66 35.67 35.81 36.13 36.45 36.63 36.77 36.73 36.69 36.72 36.71 36.58 36.55 36.52 36.55 36.47 36.29 36.15 36.19 36.26 36.22 36.11 36.04 35.96 35.92 35.99 36.11 36.07 36.09 36.16 36.40 36.22 36.01 35.90 35.94 35.76 35.79 35.75 35.73 35.63 35.59 35.70 35.74 35.74 35.60 35.51 35.41 35.49 35.60 35.85 36.06 36.13 36.35 36.57 36.64 36.68 36.83 36.94 37.01 37.12 37.23 37.38 37.49 37.42 37.38 37.23 37.12 36.94
35.24 35.28 35.35 35.56 35.88 36.21 36.53 36.67 36.74 36.66 36.62 36.54 36.44 36.41 36.34 36.33 36.22 36.15 36.15 36.19 36.11 36.00 35.85 35.92 35.92 35.85 35.83 35.87 35.90 35.94 36.00 36.13 36.09 35.99 35.92 35.84 35.76 35.83 35.86 35.84 35.63 35.52 35.53 35.60 35.61 35.52 35.38 35.34 35.48 35.58 35.80 35.95 36.09 36.27 36.35 36.42 36.38 36.46 36.57 36.72 36.83 36.97 37.08 37.23 37.20 37.16 37.05 36.97 36.79
34.84 34.91 35.16 35.59 35.77 35.99 36.20 36.53 36.59 36.52 36.44 36.37 36.30 36.23 36.15 36.08 36.04 36.04 36.11 36.04 35.96 35.78 35.71 35.74 35.81 35.89 35.87 35.98 35.98 35.94 35.86 35.78 35.78 35.84 35.84 35.84 35.73 35.73 35.76 35.81 35.59 35.42 35.36 35.55 35.60 35.38 35.17 35.01 35.26 35.48 35.71 35.78 35.97 36.08 36.19 36.23 36.19 36.11 36.19 36.23 36.34 36.46 36.60 36.75 36.90 36.86 36.79 36.64 36.53
34.35 34.65 35.23 35.85 35.92 36.10 36.24 36.38 36.35 36.20 36.12 36.09 35.98 36.02 35.91 35.87 35.83 35.79 35.75 35.68 35.62 35.55 35.55 35.62 35.79 35.87 35.98 36.04 36.07 35.96 35.68 35.40 35.29 35.32 35.49 35.56 35.56 35.56 35.52 35.56 35.49 35.45 35.51 35.74 35.63 35.37 35.09 34.72 34.95 35.22 35.54 35.77 35.84 35.99 36.10 36.10 36.02 35.94 35.84 35.77 35.81 35.92 36.07 36.30 36.45 36.49 36.35 36.24 36.21
34.09 34.64 35.23 35.77 35.92 36.06 36.21 36.13 35.99 35.92 35.92 35.92 35.95 35.84 35.73 35.59 35.55 35.45 35.34 35.23 35.30 35.34 35.41 35.45 35.62 35.80 35.94 36.00 35.99 35.89 35.71 35.37 35.12 34.95 34.99 35.05 35.26 35.29 35.29 35.25 35.27 35.51 35.70 35.70 35.37 35.29 35.33 35.31 35.28 35.32 35.43 35.62 35.77 35.81 35.88 35.96 35.96 35.78 35.67 35.52 35.51 35.48 35.56 35.69 35.89 35.94 35.95 35.88 35.85
34.45 35.08 35.49 35.70 35.88 35.88 35.85 35.77 35.77 35.74 35.77 35.85 35.81 35.63 35.49 35.38 35.31 35.17 34.99 34.89 35.03 35.20 35.27 35.38 35.55 35.65 35.68 35.82 35.75 35.64 35.50 35.34 35.17 34.92 34.75 34.68 34.72 34.78 34.92 34.95 35.06 35.42 35.56 35.26 35.21 35.34 35.67 36.00 36.19 35.98 35.75 35.55 35.56 35.50 35.44 35.45 35.64 35.71 35.63 35.54 35.39 35.25 35.09 34.90 35.08 35.28 35.44 35.55 35.63
35.11 35.41 35.52 35.74 35.77 35.74 35.67 35.70 35.74 35.74 35.70 35.60 35.49 35.34 35.24 35.17 35.03 34.89 34.75 34.72 34.82 35.00 35.10 35.35 35.52 35.48 35.43 35.61 35.40 35.19 35.09 35.13 35.10 34.96 34.72 34.57 34.40 34.37 34.51 34.64 34.85 35.02 35.09 35.00 35.13 35.38 35.76 36.18 36.39 36.42 36.16 35.59 35.46 35.25 35.04 34.98 35.25 35.47 35.46 35.39 35.30 35.13 34.86 34.63 34.60 34.70 34.82 35.05 35.30
35.19 35.34 35.48 35.56 35.56 35.56 35.60 35.74 35.60 35.45 35.31 35.24 35.13 35.06 34.91 34.85 34.64 34.54 34.58 34.61 34.68 34.82 34.93 35.17 35.38 35.44 35.43 35.27 35.05 34.92 34.86 34.86 34.86 34.82 34.71 34.60 34.39 34.32 34.30 34.37 34.47 34.57 34.71 34.84 35.11 35.43 35.74 36.02 36.27 36.44 36.32 35.90 35.48 35.26 35.10 34.92 34.99 35.05 35.07 35.09 35.05 34.96 34.79 34.58 34.50 34.49 34.50 34.50 34.69
35.06 35.16 35.24 35.31 35.31 35.45 35.49 35.45 35.28 35.17 35.03 34.99 34.91 34.81 34.66 34.49 34.46 34.40 34.40 34.33 34.32 34.36 34.51 34.78 35.09 35.16 34.98 34.77 34.78 34.82 34.79 34.75 34.75 34.64 34.63 34.35 34.25 34.18 34.19 34.16 34.16 34.31 34.56 34.89 35.12 35.27 35.47 35.67 35.94 36.18 36.36 36.18 35.41 35.05 34.85 34.77 34.73 34.73 34.76 34.78 34.80 34.78 34.60 34.46 34.36 34.22 34.23 34.21 34.26
35.02 35.09 35.06 35.03 35.21 35.28 35.28 35.17 35.06 34.95 34.92 34.92 34.70 34.52 34.31 34.21 34.18 34.18 34.07 33.93 33.93 34.12 34.40 34.68 34.72 34.58 34.44 34.44 34.54 34.47 34.44 34.47 34.54 34.50 34.31 33.93 33.83 33.80 33.83 33.91 33.84 34.04 34.39 34.89 35.04 35.16 35.28 35.46 35.61 35.89 36.02 36.12 35.45 34.99 34.73 34.71 34.67 34.60 34.52 34.51 34.60 34.55 34.40 34.07 34.06 34.00 33.97 33.98 33.99
34.84 34.88 34.88 34.89 35.00 35.03 35.10 35.06 34.99 34.85 34.74 34.64 34.39 34.17 33.99 33.89 33.89 33.92 33.93 33.86 34.00 34.29 34.54 34.75 34.51 34.33 34.27 34.44 34.40 34.23 34.13 34.16 34.23 34.15 33.93 33.71 33.57 33.51 33.55 33.63 33.69 33.90 34.23 34.76 34.86 35.04 35.10 35.24 35.35 35.52 35.66 35.80 35.16 34.74 34.55 34.65 34.58 34.47 34.39 34.37 34.32 34.17 33.97 33.70 33.71 33.79 33.85 33.80 33.72
34.77 34.81 34.77 34.74 34.78 34.89 34.92 34.92 34.81 34.67 34.43 34.25 34.04 33.92 33.77 33.73 33.84 33.96 34.03 34.07 34.14 34.19 34.30 34.34 34.20 34.09 34.06 34.13 34.06 33.99 33.89 33.82 33.78 33.80 33.79 33.61 33.43 33.29 33.27 33.38 33.52 33.74 34.02 34.49 34.69 34.82 34.96 35.07 35.11 35.24 35.38 35.47 34.91 34.70 34.53 34.49 34.47 34.40 34.35 34.24 34.01 33.81 33.73 33.43 33.56 33.76 33.89 33.86 33.78
34.74 34.66 34.63 34.56 34.56 34.67 34.70 34.70 34.63 34.39 34.17 33.99 33.85 33.76 33.71 33.73 33.84 33.99 34.00 34.05 33.97 33.95 33.89 33.86 33.78 33.72 33.62 33.59 33.52 33.52 33.51 33.57 33.56 33.62 33.65 33.54 33.33 33.16 33.03 33.04 33.32 33.66 34.03 34.32 34.52 34.65 34.76 34.83 34.87 35.00 35.13 35.30 34.82 34.57 34.50 34.38 34.26 34.10 33.92 33.76 33.71 33.65 33.68 33.80 33.77 33.85 33.94 33.98 33.94
34.53 34.49 34.42 34.41 34.45 34.45 34.48 34.45 34.31 34.16 33.94 33.73 33.69 33.68 33.69 33.65 33.58 33.55 33.62 33.67 33.73 33.81 33.88 33.92 33.79 33.72 33.65 33.62 33.41 33.27 33.25 33.30 33.41 33.44 33.41 33.38 33.23 33.02 32.79 32.69 33.06 33.48 33.98 34.22 34.31 34.48 34.48 34.55 34.67 34.80 34.88 35.06 34.57 34.34 34.22 34.02 33.83 33.58 33.36 33.17 33.34 33.55 33.75 33.95 34.03 34.07 34.15 34.14 34.09
34.22 34.15 34.04 34.10 34.13 34.16 34.12 34.05 33.97 33.79 33.53 33.32 33.35 33.43 33.55 33.54 33.31 33.27 33.32 33.43 33.51 33.73 33.84 34.02 34.06 33.96 33.85 33.79 33.67 33.42 33.14 32.98 33.05 33.09 33.09 33.09 32.92 32.68 32.44 32.44 32.79 33.36 33.81 34.02 34.11 34.17 34.20 34.27 34.39 34.59 34.61 34.62 34.13 33.98 33.87 33.67 33.28 33.06 32.88 32.83 33.01 33.32 33.63 33.90 34.00 34.17 34.30 34.35 34.26
34.08 33.80 33.69 33.65 33.71 33.76 33.76 33.68 33.52 33.30 33.08 32.93 33.02 33.06 33.26 33.18 33.21 33.31 33.40 33.38 33.43 33.44 33.56 33.68 33.75 33.65 33.51 33.40 33.32 33.21 33.00 32.78 32.71 32.71 32.78 32.85 32.58 32.27 32.07 32.10 32.48 33.05 33.56 33.82 33.83 33.82 33.89 33.96 34.11 34.31 34.31 34.03 33.75 33.52 33.27 32.90 32.68 32.58 32.55 32.56 32.75 33.11 33.46 33.71 33.93 34.13 34.30 34.30 34.20
33.97 33.69 33.40 33.25 33.33 33.32 33.35 33.26 33.07 32.81 32.66 32.68 32.72 32.87 32.86 32.89 32.96 33.21 33.41 33.42 33.19 33.07 33.08 33.19 33.10 32.99 32.91 32.86 32.85 32.88 32.92 32.99 32.70 32.53 32.47 32.58 32.29 32.01 31.77 31.74 32.07 32.54 33.06 33.44 33.49 33.58 33.61 33.80 33.99 34.12 33.96 33.41 33.26 32.91 32.52 32.19 31.93 32.02 32.13 32.23 32.52 32.93 33.35 33.58 33.80 33.98 34.12 34.04 34.15
33.83 33.54 33.24 32.97 32.88 32.89 32.92 32.80 32.57 32.38 32.29 32.37 32.61 32.68 32.74 32.66 32.74 33.04 33.28 33.21 32.88 32.64 32.55 32.59 32.56 32.59 32.68 32.79 32.65 32.69 32.83 32.96 32.74 32.47 32.20 32.21 32.12 31.93 31.67 31.42 31.70 32.12 32.62 33.08 33.26 33.35 33.46 33.65 33.95 34.01 33.79 33.07 32.78 32.35 31.97 31.75 31.61 31.63 31.73 31.95 32.17 32.65 33.14 33.42 33.58 33.71 33.88 34.07 34.40
33.68 33.38 33.10 32.75 32.59 32.53 32.42 32.34 32.19 32.16 32.12 32.26 32.34 32.38 32.47 32.44 32.60 32.88 33.11 33.15 32.87 32.53 32.28 32.12 32.24 32.43 32.65 32.66 32.43 32.41 32.50 32.65 32.71 32.53 32.28 31.98 32.06 31.91 31.62 31.24 31.39 31.84 32.35 32.87 33.04 33.25 33.39 33.62 33.89 34.06 33.93 33.29 32.49 32.02 31.75 31.51 31.34 31.37 31.50 31.73 31.83 32.25 32.69 33.06 33.33 33.53 33.76 34.35 34.98
33.49 33.25 32.90 32.59 32.42 32.29 32.10 31.97 32.00 32.09 32.18 32.14 32.04 32.02 32.12 32.26 32.46 32.81 33.01 33.12 32.88 32.60 32.31 32.14 32.19 32.39 32.49 32.42 32.08 31.92 32.00 32.26 32.47 32.53 32.38 32.13 32.11 31.95 31.66 31.35 31.44 31.75 32.20 32.69 32.92 33.15 33.37 33.63 33.85 34.06 33.89 32.90 32.19 31.81 31.56 31.13 30.94 30.86 30.98 31.32 31.42 31.55 31.95 32.57 33.08 33.52 33.94 34.54 35.02
33.33 32.99 32.63 32.39 32.26 32.06 31.86 31.70 31.79 31.97 32.10 32.02 31.87 31.90 32.10 32.36 32.59 32.73 32.77 32.71 32.57 32.39 32.28 32.15 32.24 32.30 32.32 32.09 31.80 31.60 31.55 31.65 32.05 32.29 32.34 32.17 32.06 31.97 31.77 31.60 31.52 31.75 32.04 32.52 32.82 33.14 33.38 33.66 33.82 33.99 33.79 32.81 32.15 31.85 31.53 30.93 30.64 30.45 30.48 30.91 31.10 31.24 31.47 32.00 32.68 33.33 33.84 34.07 34.17
MSLP
1016.42 1016.50 1016.54 1016.58 1016.62 1016.66 1016.70 1016.82 1016.86 1016.86 1016.82 1016.74 1016.70 1016.70 1016.70 1016.70 1016.70 1016.70 1016.70 1016.78 1016.74 1016.70 1016.70 1016.74 1016.70 1016.70 1016.66 1016.58 1016.54 1016.42 1016.38 1016.26 1016.22 1016.14 1016.02 1015.90 1015.82 1015.74 1015.66 1015.54 1015.46 1015.34 1015.22 1015.10 1014.98 1014.86 1014.70 1014.54 1014.38 1014.18 1013.98 1013.82 1013.66 1013.50 1013.38 1013.30 1013.26 1013.14 1012.98 1012.86 1012.70 1012.50 1012.34 1012.14 1011.98 1011.78 1011.58 1011.46 1011.30
1016.66 1016.70 1016.74 1016.78 1016.78 1016.82 1016.86 1016.86 1016.94 1016.94 1016.94 1016.98 1016.98 1016.94 1016.90 1016.90 1016.86 1016.86 1016.86 1016.90 1016.90 1016.90 1016.86 1016.86 1016.86 1016.78 1016.70 1016.62 1016.58 1016.50 1016.42 1016.30 1016.26 1016.14 1016.02 1015.94 1015.82 1015.78 1015.70 1015.58 1015.46 1015.42 1015.26 1015.14 1015.02 1014.90 1014.78 1014.58 1014.42 1014.22 1014.02 1013.82 1013.70 1013.54 1013.42 1013.38 1013.30 1013.14 1012.98 1012.86 1012.70 1012.54 1012.34 1012.14 1011.98 1011.78 1011.62 1011.46 1011.30
1016.82 1016.86 1016.86 1016.82 1016.82 1016.86 1016.86 1016.90 1016.98 1016.98 1017.02 1017.06 1017.14 1017.14 1017.10 1017.10 1017.06 1017.02 1017.02 1017.02 1017.02 1017.02 1016.98 1016.94 1016.94 1016.86 1016.78 1016.70 1016.62 1016.54 1016.46 1016.38 1016.26 1016.14 1016.02 1015.94 1015.82 1015.78 1015.70 1015.58 1015.50 1015.42 1015.30 1015.18 1015.10 1014.98 1014.86 1014.66 1014.46 1014.26 1014.06 1013.86 1013.70 1013.54 1013.42 1013.34 1013.26 1013.18 1013.02 1012.86 1012.70 1012.54 1012.38 1012.14 1011.94 1011.78 1011.62 1011.46 1011.30
1016.94 1016.94 1016.98 1016.98 1016.94 1016.94 1016.98 1017.02 1017.06 1017.10 1017.14 1017.18 1017.22 1017.22 1017.22 1017.22 1017.22 1017.22 1017.18 1017.14 1017.14 1017.14 1017.10 1017.02 1017.02 1016.98 1016.86 1016.74 1016.66 1016.58 1016.50 1016.42 1016.34 1016.22 1016.06 1015.98 1015.82 1015.78 1015.70 1015.66 1015.50 1015.38 1015.30 1015.22 1015.14 1014.98 1014.86 1014.74 1014.54 1014.26 1014.10 1013.90 1013.74 1013.58 1013.46 1013.38 1013.30 1013.18 1013.06 1012.90 1012.74 1012.54 1012.34 1012.14 1011.94 1011.78 1011.66 1011.46 1011.30
1017.06 1017.10 1017.14 1017.14 1017.14 1017.18 1017.22 1017.22 1017.22 1017.22 1017.26 1017.30 1017.30 1017.26 1017.30 1017.34 1017.34 1017.30 1017.26 1017.26 1017.26 1017.22 1017.18 1017.14 1017.10 1017.02 1016.94 1016.86 1016.70 1016.58 1016.54 1016.46 1016.38 1016.26 1016.10 1015.98 1015.86 1015.82 1015.70 1015.62 1015.50 1015.42 1015.30 1015.22 1015.14 1014.98 1014.86 1014.70 1014.50 1014.26 1014.14 1013.98 1013.82 1013.70 1013.54 1013.46 1013.30 1013.18 1013.06 1012.98 1012.82 1012.58 1012.38 1012.18 1011.98 1011.82 1011.70 1011.54 1011.34
1017.18 1017.26 1017.30 1017.38 1017.38 1017.38 1017.42 1017.42 1017.42 1017.42 1017.42 1017.42 1017.42 1017.38 1017.38 1017.42 1017.38 1017.34 1017.30 1017.26 1017.26 1017.30 1017.26 1017.26 1017.14 1017.06 1016.98 1016.86 1016.74 1016.66 1016.54 1016.46 1016.38 1016.26 1016.14 1016.06 1015.94 1015.82 1015.74 1015.66 1015.54 1015.42 1015.30 1015.22 1015.10 1014.98 1014.86 1014.70 1014.46 1014.26 1014.10 1013.98 1013.82 1013.70 1013.58 1013.50 1013.34 1013.22 1013.10 1012.94 1012.74 1012.54 1012.38 1012.18 1011.98 1011.82 1011.66 1011.46 1011.26
1017.30 1017.38 1017.46 1017.54 1017.54 1017.54 1017.54 1017.54 1017.54 1017.54 1017.54 1017.54 1017.46 1017.46 1017.50 1017.50 1017.42 1017.42 1017.34 1017.34 1017.34 1017.34 1017.34 1017.30 1017.22 1017.10 1016.98 1016.90 1016.82 1016.70 1016.58 1016.50 1016.42 1016.30 1016.18 1016.10 1015.98 1015.86 1015.78 1015.70 1015.54 1015.42 1015.30 1015.18 1015.06 1014.94 1014.82 1014.70 1014.50 1014.26 1014.10 1013.98 1013.82 1013.70 1013.54 1013.54 1013.42 1013.26 1013.06 1012.86 1012.70 1012.54 1012.34 1012.14 1011.98 1011.82 1011.62 1011.34 1011.14
1017.50 1017.54 1017.62 1017.66 1017.70 1017.70 1017.70 1017.70 1017.66 1017.58 1017.58 1017.58 1017.62 1017.62 1017.58 1017.58 1017.54 1017.46 1017.42 1017.42 1017.42 1017.42 1017.42 1017.38 1017.26 1017.18 1017.10 1016.98 1016.86 1016.78 1016.70 1016.54 1016.42 1016.30 1016.18 1016.10 1015.98 1015.86 1015.78 1015.70 1015.54 1015.42 1015.30 1015.22 1015.06 1014.94 1014.78 1014.66 1014.46 1014.26 1014.10 1013.98 1013.82 1013.70 1013.58 1013.54 1013.42 1013.26 1013.02 1012.82 1012.58 1012.42 1012.26 1012.10 1011.94 1011.74 1011.50 1011.26 1011.06
1017.58 1017.66 1017.70 1017.78 1017.82 1017.82 1017.82 1017.82 1017.78 1017.70 1017.66 1017.66 1017.70 1017.70 1017.70 1017.70 1017.62 1017.54 1017.50 1017.50 1017.50 1017.46 1017.42 1017.42 1017.34 1017.26 1017.14 1017.06 1016.98 1016.86 1016.74 1016.62 1016.46 1016.34 1016.22 1016.14 1015.98 1015.90 1015.78 1015.70 1015.54 1015.42 1015.26 1015.18 1015.06 1014.94 1014.82 1014.62 1014.42 1014.26 1014.14 1013.98 1013.82 1013.70 1013.58 1013.50 1013.34 1013.14 1012.98 1012.74 1012.54 1012.30 1012.14 1012.02 1011.82 1011.54 1011.30 1011.14 1010.94
1017.62 1017.70 1017.74 1017.82 1017.82 1017.86 1017.90 1017.86 1017.82 1017.78 1017.74 1017.70 1017.74 1017.74 1017.74 1017.74 1017.70 1017.62 1017.58 1017.58 1017.54 1017.50 1017.42 1017.42 1017.38 1017.26 1017.18 1017.10 1016.98 1016.90 1016.82 1016.70 1016.54 1016.42 1016.26 1016.14 1016.02 1015.90 1015.78 1015.70 1015.54 1015.42 1015.26 1015.18 1015.06 1014.94 1014.78 1014.58 1014.42 1014.26 1014.14 1014.02 1013.82 1013.66 1013.54 1013.42 1013.26 1013.02 1012.86 1012.66 1012.42 1012.18 1011.98 1011.82 1011.70 1011.42 1011.18 1010.98 1010.82
1017.70 1017.74 1017.82 1017.82 1017.90 1017.94 1017.90 1017.86 1017.82 1017.82 1017.78 1017.74 1017.74 1017.74 1017.74 1017.70 1017.70 1017.70 1017.70 1017.70 1017.58 1017.50 1017.50 1017.50 1017.42 1017.34 1017.22 1017.14 1017.02 1016.94 1016.86 1016.74 1016.54 1016.42 1016.26 1016.14 1016.02 1015.94 1015.82 1015.70 1015.54 1015.42 1015.26 1015.18 1015.06 1014.94 1014.78 1014.54 1014.38 1014.26 1014.14 1013.98 1013.82 1013.62 1013.42 1013.30 1013.14 1012.94 1012.74 1012.54 1012.34 1012.10 1011.82 1011.58 1011.46 1011.26 1011.02 1010.86 1010.66
1017.82 1017.86 1017.94 1017.94 1017.98 1017.98 1017.90 1017.86 1017.82 1017.82 1017.82 1017.78 1017.78 1017.74 1017.70 1017.70 1017.70 1017.70 1017.70 1017.62 1017.54 1017.54 1017.54 1017.54 1017.50 1017.42 1017.26 1017.18 1017.10 1016.98 1016.86 1016.74 1016.58 1016.42 1016.26 1016.14 1016.02 1015.90 1015.78 1015.66 1015.54 1015.42 1015.26 1015.14 1015.06 1014.90 1014.70 1014.54 1014.38 1014.18 1013.98 1013.86 1013.70 1013.54 1013.34 1013.18 1012.98 1012.82 1012.58 1012.34 1012.14 1011.94 1011.66 1011.42 1011.26 1011.10 1010.90 1010.70 1010.54
1017.94 1017.98 1017.98 1018.02 1018.02 1017.98 1017.94 1017.86 1017.82 1017.82 1017.82 1017.82 1017.82 1017.78 1017.74 1017.70 1017.70 1017.70 1017.70 1017.62 1017.58 1017.58 1017.58 1017.54 1017.50 1017.42 1017.30 1017.22 1017.14 1016.98 1016.86 1016.74 1016.58 1016.42 1016.26 1016.14 1015.98 1015.86 1015.74 1015.58 1015.50 1015.38 1015.26 1015.14 1015.02 1014.86 1014.70 1014.50 1014.34 1014.14 1013.94 1013.74 1013.62 1013.46 1013.26 1013.10 1012.86 1012.66 1012.42 1012.14 1011.94 1011.70 1011.42 1011.26 1011.06 1010.90 1010.74 1010.54 1010.42
1018.02 1018.02 1018.06 1018.06 1018.02 1017.98 1017.94 1017.90 1017.86 1017.82 1017.82 1017.82 1017.82 1017.82 1017.78 1017.70 1017.70 1017.70 1017.70 1017.70 1017.70 1017.66 1017.58 1017.54 1017.46 1017.42 1017.34 1017.26 1017.14 1017.02 1016.86 1016.70 1016.54 1016.38 1016.22 1016.10 1015.98 1015.82 1015.70 1015.58 1015.46 1015.34 1015.22 1015.10 1014.98 1014.82 1014.62 1014.42 1014.26 1014.06 1013.86 1013.70 1013.50 1013.34 1013.14 1012.98 1012.74 1012.54 1012.26 1011.98 1011.70 1011.46 1011.26 1011.14 1010.94 1010.74 1010.58 1010.38 1010.18
1018.06 1018.10 1018.10 1018.10 1018.02 1017.98 1017.98 1017.94 1017.86 1017.82 1017.82 1017.82 1017.86 1017.86 1017.82 1017.74 1017.74 1017.78 1017.78 1017.74 1017.70 1017.66 1017.58 1017.54 1017.46 1017.42 1017.34 1017.26 1017.14 1016.98 1016.86 1016.70 1016.50 1016.30 1016.14 1016.02 1015.90 1015.82 1015.70 1015.54 1015.42 1015.26 1015.14 1015.02 1014.86 1014.70 1014.54 1014.34 1014.18 1013.98 1013.78 1013.58 1013.38 1013.22 1013.02 1012.82 1012.58 1012.34 1012.14 1011.82 1011.58 1011.34 1011.14 1010.98 1010.78 1010.58 1010.42 1010.22 1009.98
1018.10 1018.14 1018.14 1018.10 1018.10 1018.06 1017.98 1017.98 1017.94 1017.90 1017.86 1017.86 1017.94 1017.94 1017.86 1017.78 1017.82 1017.82 1017.82 1017.78 1017.70 1017.66 1017.62 1017.54 1017.50 1017.42 1017.26 1017.14 1017.10 1016.98 1016.82 1016.62 1016.46 1016.26 1016.14 1015.98 1015.86 1015.74 1015.62 1015.50 1015.38 1015.22 1015.10 1014.94 1014.78 1014.58 1014.42 1014.26 1014.10 1013.90 1013.70 1013.50 1013.26 1013.06 1012.86 1012.62 1012.42 1012.14 1011.94 1011.70 1011.46 1011.26 1011.02 1010.82 1010.62 1010.42 1010.26 1010.06 1009.86
1018.14 1018.14 1018.14 1018.14 1018.14 1018.14 1018.06 1018.02 1017.98 1017.98 1017.98 1017.98 1017.98 1017.98 1017.94 1017.86 1017.82 1017.86 1017.86 1017.82 1017.74 1017.70 1017.66 1017.58 1017.50 1017.38 1017.22 1017.10 1017.02 1016.90 1016.74 1016.54 1016.42 1016.26 1016.14 1015.98 1015.86 1015.70 1015.58 1015.42 1015.30 1015.18 1015.02 1014.86 1014.66 1014.46 1014.26 1014.14 1013.98 1013.82 1013.66 1013.42 1013.18 1012.94 1012.70 1012.42 1012.18 1011.94 1011.70 1011.54 1011.30 1011.10 1010.86 1010.70 1010.50 1010.26 1010.10 1009.90 1009.70
1018.14 1018.14 1018.18 1018.18 1018.18 1018.14 1018.14 1018.14 1018.14 1018.10 1018.06 1018.02 1017.98 1017.98 1017.98 1017.98 1017.94 1017.90 1017.90 1017.86 1017.82 1017.74 1017.66 1017.58 1017.46 1017.38 1017.26 1017.10 1016.98 1016.86 1016.70 1016.54 1016.38 1016.22 1016.10 1015.98 1015.82 1015.70 1015.54 1015.42 1015.26 1015.10 1014.94 1014.78 1014.54 1014.38 1014.18 1013.98 1013.82 1013.70 1013.50 1013.26 1013.06 1012.78 1012.54 1012.30 1012.02 1011.78 1011.54 1011.34 1011.14 1010.98 1010.74 1010.54 1010.34 1010.18 1009.98 1009.78 1009.54
1018.14 1018.18 1018.18 1018.22 1018.22 1018.22 1018.22 1018.22 1018.22 1018.18 1018.14 1018.10 1018.02 1017.98 1017.98 1017.98 1017.98 1017.98 1017.90 1017.86 1017.82 1017.74 1017.66 1017.58 1017.46 1017.30 1017.18 1017.06 1016.94 1016.82 1016.66 1016.50 1016.38 1016.22 1016.10 1015.94 1015.78 1015.66 1015.50 1015.34 1015.14 1014.98 1014.86 1014.66 1014.46 1014.26 1014.10 1013.94 1013.74 1013.58 1013.38 1013.14 1012.86 1012.62 1012.38 1012.14 1011.90 1011.66 1011.42 1011.18 1010.98 1010.78 1010.58 1010.42 1010.22 1010.06 1009.86 1009.70 1009.50
1018.22 1018.22 1018.26 1018.26 1018.26 1018.26 1018.26 1018.26 1018.26 1018.26 1018.14 1018.10 1018.02 1017.98 1017.98 1017.98 1017.98 1017.94 1017.86 1017.82 1017.78 1017.74 1017.66 1017.54 1017.42 1017.26 1017.14 1016.98 1016.86 1016.70 1016.58 1016.46 1016.30 1016.14 1016.02 1015.90 1015.70 1015.54 1015.38 1015.22 1015.06 1014.90 1014.70 1014.54 1014.34 1014.14 1013.98 1013.82 1013.70 1013.46 1013.26 1013.02 1012.74 1012.46 1012.22 1011.98 1011.74 1011.54 1011.26 1011.10 1010.86 1010.62 1010.42 1010.26 1010.10 1009.94 1009.74 1009.54 1009.38
1018.26 1018.30 1018.34 1018.34 1018.34 1018.30 1018.26 1018.34 1018.34 1018.26 1018.18 1018.10 1018.02 1017.98 1017.98 1017.98 1017.94 1017.90 1017.86 1017.82 1017.78 1017.70 1017.58 1017.46 1017.34 1017.18 1017.06 1016.90 1016.78 1016.66 1016.54 1016.42 1016.26 1016.10 1015.98 1015.82 1015.66 1015.46 1015.30 1015.14 1014.98 1014.78 1014.54 1014.38 1014.22 1014.06 1013.90 1013.78 1013.62 1013.42 1013.18 1012.94 1012.66 1012.38 1012.14 1011.86 1011.62 1011.34 1011.14 1010.94 1010.70 1010.50 1010.26 1010.10 1009.94 1009.78 1009.58 1009.42 1009.26
1018.38 1018.42 1018.42 1018.42 1018.42 1018.38 1018.38 1018.38 1018.38 1018.26 1018.14 1018.06 1017.98 1017.94 1017.94 1017.90 1017.90 1017.90 1017.86 1017.82 1017.70 1017.62 1017.50 1017.42 1017.26 1017.14 1016.98 1016.86 1016.70 1016.58 1016.42 1016.30 1016.14 1016.02 1015.86 1015.70 1015.54 1015.38 1015.22 1015.06 1014.86 1014.62 1014.42 1014.26 1014.14 1013.98 1013.86 1013.74 1013.58 1013.38 1013.14 1012.82 1012.54 1012.26 1012.02 1011.78 1011.50 1011.26 1010.98 1010.74 1010.54 1010.34 1010.14 1009.98 1009.78 1009.58 1009.42 1009.26 1009.14
1018.46 1018.46 1018.46 1018.42 1018.42 1018.42 1018.42 1018.42 1018.34 1018.26 1018.14 1018.02 1017.94 1017.90 1017.90 1017.86 1017.86 1017.82 1017.82 1017.70 1017.66 1017.54 1017.42 1017.34 1017.22 1017.06 1016.94 1016.82 1016.66 1016.50 1016.34 1016.22 1016.06 1015.90 1015.74 1015.58 1015.42 1015.22 1015.10 1014.94 1014.70 1014.50 1014.30 1014.14 1014.06 1013.98 1013.90 1013.70 1013.54 1013.30 1013.06 1012.78 1012.42 1012.14 1011.90 1011.66 1011.42 1011.14 1010.86 1010.58 1010.34 1010.14 1009.98 1009.82 1009.62 1009.42 1009.26 1009.10 1008.98
1018.54 1018.54 1018.50 1018.46 1018.42 1018.42 1018.42 1018.34 1018.26 1018.18 1018.06 1017.98 1017.94 1017.90 1017.86 1017.86 1017.82 1017.78 1017.70 1017.66 1017.58 1017.50 1017.38 1017.26 1017.14 1016.98 1016.86 1016.70 1016.54 1016.38 1016.26 1016.10 1015.90 1015.74 1015.58 1015.46 1015.26 1015.10 1014.94 1014.74 1014.54 1014.38 1014.22 1014.14 1014.10 1014.06 1013.94 1013.74 1013.50 1013.22 1012.94 1012.66 1012.38 1012.10 1011.82 1011.54 1011.30 1011.02 1010.74 1010.42 1010.22 1009.98 1009.78 1009.58 1009.42 1009.26 1009.14 1008.94 1008.78
1018.58 1018.54 1018.50 1018.42 1018.42 1018.38 1018.34 1018.30 1018.22 1018.14 1018.02 1017.98 1017.94 1017.90 1017.82 1017.82 1017.78 1017.70 1017.66 1017.58 1017.50 1017.42 1017.26 1017.18 1017.02 1016.86 1016.74 1016.54 1016.42 1016.26 1016.14 1015.94 1015.74 1015.58 1015.42 1015.26 1015.14 1014.98 1014.82 1014.62 1014.42 1014.26 1014.18 1014.14 1014.10 1014.02 1013.94 1013.78 1013.54 1013.26 1012.94 1012.62 1012.34 1012.02 1011.74 1011.46 1011.26 1010.98 1010.70 1010.42 1010.14 1009.86 1009.58 1009.38 1009.22 1009.10 1008.94 1008.78 1008.62
1018.54 1018.50 1018.42 1018.42 1018.38 1018.34 1018.26 1018.26 1018.14 1018.10 1018.02 1017.98 1017.90 1017.86 1017.82 1017.82 1017.78 1017.70 1017.62 1017.50 1017.42 1017.30 1017.22 1017.06 1016.90 1016.74 1016.54 1016.42 1016.26 1016.14 1015.98 1015.82 1015.70 1015.54 1015.34 1015.14 1014.98 1014.82 1014.70 1014.50 1014.30 1014.22 1014.14 1014.02 1013.98 1013.90 1013.82 1013.62 1013.46 1013.26 1012.98 1012.66 1012.30 1011.98 1011.66 1011.30 1011.10 1010.86 1010.58 1010.30 1010.06 1009.78 1009.46 1009.18 1008.98 1008.86 1008.70 1008.54 1008.46
1018.54 1018.50 1018.42 1018.42 1018.30 1018.26 1018.26 1018.22 1018.14 1018.02 1017.98 1017.94 1017.90 1017.86 1017.82 1017.82 1017.74 1017.66 1017.54 1017.42 1017.34 1017.26 1017.10 1016.94 1016.78 1016.62 1016.46 1016.30 1016.14 1015.98 1015.82 1015.70 1015.54 1015.42 1015.22 1015.06 1014.90 1014.70 1014.54 1014.38 1014.26 1014.14 1014.02 1013.98 1013.90 1013.82 1013.66 1013.46 1013.26 1013.14 1012.94 1012.66 1012.30 1011.98 1011.62 1011.26 1010.94 1010.70 1010.46 1010.14 1009.86 1009.62 1009.34 1009.14 1008.86 1008.70 1008.50 1008.38 1008.26
1018.50 1018.46 1018.42 1018.42 1018.30 1018.26 1018.18 1018.14 1018.06 1018.02 1017.98 1017.90 1017.86 1017.82 1017.82 1017.78 1017.70 1017.58 1017.46 1017.38 1017.26 1017.14 1016.98 1016.82 1016.70 1016.54 1016.38 1016.14 1015.98 1015.82 1015.70 1015.58 1015.42 1015.26 1015.10 1014.94 1014.78 1014.58 1014.42 1014.30 1014.14 1014.06 1013.98 1013.90 1013.78 1013.66 1013.50 1013.30 1013.14 1012.98 1012.78 1012.54 1012.26 1011.90 1011.54 1011.22 1010.86 1010.54 1010.26 1009.98 1009.70 1009.46 1009.22 1009.02 1008.82 1008.62 1008.42 1008.22 1008.06
1018.50 1018.46 1018.42 1018.34 1018.26 1018.22 1018.14 1018.14 1018.02 1017.98 1017.94 1017.94 1017.86 1017.82 1017.82 1017.70 1017.62 1017.50 1017.42 1017.30 1017.18 1017.02 1016.86 1016.70 1016.54 1016.42 1016.26 1016.06 1015.86 1015.74 1015.58 1015.42 1015.26 1015.14 1014.98 1014.82 1014.66 1014.50 1014.34 1014.22 1014.06 1013.94 1013.82 1013.78 1013.66 1013.50 1013.34 1013.18 1012.98 1012.82 1012.62 1012.46 1012.22 1011.86 1011.50 1011.14 1010.78 1010.42 1010.10 1009.82 1009.54 1009.34 1009.14 1008.94 1008.74 1008.54 1008.38 1008.18 1007.98
1018.50 1018.46 1018.42 1018.30 1018.22 1018.14 1018.14 1018.10 1018.02 1017.98 1017.94 1017.90 1017.82 1017.78 1017.70 1017.62 1017.54 1017.42 1017.30 1017.22 1017.06 1016.94 1016.78 1016.66 1016.46 1016.30 1016.14 1015.98 1015.78 1015.58 1015.42 1015.26 1015.14 1015.02 1014.86 1014.66 1014.50 1014.34 1014.22 1014.10 1013.98 1013.82 1013.70 1013.62 1013.50 1013.38 1013.22 1013.02 1012.86 1012.62 1012.46 1012.26 1012.06 1011.74 1011.42 1011.06 1010.70 1010.34 1009.98 1009.70 1009.46 1009.26 1009.06 1008.90 1008.70 1008.54 1008.34 1008.14 1007.90
1018.50 1018.42 1018.38 1018.30 1018.18 1018.14 1018.10 1018.10 1018.02 1017.98 1017.90 1017.82 1017.82 1017.74 1017.62 1017.54 1017.42 1017.30 1017.22 1017.10 1016.98 1016.82 1016.70 1016.54 1016.38 1016.18 1015.98 1015.82 1015.66 1015.46 1015.30 1015.14 1015.02 1014.86 1014.70 1014.54 1014.38 1014.22 1014.10 1013.98 1013.82 1013.70 1013.54 1013.46 1013.38 1013.22 1013.06 1012.86 1012.70 1012.50 1012.30 1012.14 1011.90 1011.62 1011.26 1010.90 1010.54 1010.22 1009.86 1009.54 1009.34 1009.18 1009.02 1008.90 1008.70 1008.50 1008.26 1008.02 1007.82
1018.46 1018.42 1018.38 1018.26 1018.18 1018.14 1018.10 1018.02 1017.98 1017.94 1017.86 1017.78 1017.74 1017.66 1017.54 1017.42 1017.34 1017.26 1017.14 1017.02 1016.90 1016.70 1016.54 1016.34 1016.18 1016.02 1015.82 1015.66 1015.50 1015.34 1015.14 1014.98 1014.86 1014.70 1014.58 1014.46 1014.26 1014.14 1013.98 1013.82 1013.70 1013.54 1013.42 1013.34 1013.26 1013.10 1012.90 1012.74 1012.54 1012.34 1012.14 1011.94 1011.70 1011.42 1011.10 1010.74 1010.38 1010.02 1009.74 1009.50 1009.30 1009.14 1008.98 1008.82 1008.62 1008.38 1008.14 1007.94 1007.74
1018.42 1018.38 1018.30 1018.26 1018.18 1018.14 1018.06 1018.02 1017.98 1017.90 1017.82 1017.74 1017.66 1017.54 1017.46 1017.38 1017.26 1017.18 1017.06 1016.94 1016.78 1016.58 1016.42 1016.22 1016.06 1015.90 1015.70 1015.54 1015.34 1015.22 1015.10 1014.94 1014.78 1014.62 1014.46 1014.38 1014.22 1014.02 1013.82 1013.70 1013.54 1013.38 1013.26 1013.18 1013.10 1012.98 1012.78 1012.58 1012.42 1012.18 1011.98 1011.82 1011.54 1011.22 1010.86 1010.54 1010.18 1009.90 1009.66 1009.42 1009.26 1009.14 1008.94 1008.70 1008.46 1008.26 1008.06 1007.82 1007.66
1018.42 1018.34 1018.30 1018.26 1018.14 1018.10 1018.06 1017.98 1017.94 1017.86 1017.78 1017.70 1017.54 1017.50 1017.42 1017.30 1017.18 1017.06 1016.98 1016.86 1016.70 1016.54 1016.34 1016.14 1015.98 1015.82 1015.66 1015.46 1015.30 1015.14 1014.94 1014.82 1014.66 1014.54 1014.38 1014.22 1014.06 1013.90 1013.74 1013.54 1013.38 1013.26 1013.14 1013.10 1012.94 1012.82 1012.66 1012.46 1012.26 1012.06 1011.86 1011.66 1011.38 1011.02 1010.62 1010.26 1009.98 1009.78 1009.58 1009.38 1009.18 1008.98 1008.78 1008.58 1008.34 1008.14 1007.98 1007.74 1007.54
1018.38 1018.34 1018.26 1018.22 1018.14 1018.10 1018.02 1017.98 1017.90 1017.82 1017.70 1017.58 1017.50 1017.42 1017.30 1017.26 1017.14 1016.98 1016.86 1016.74 1016.62 1016.42 1016.26 1016.02 1015.90 1015.70 1015.54 1015.34 1015.22 1015.02 1014.86 1014.70 1014.54 1014.42 1014.26 1014.14 1013.94 1013.70 1013.54 1013.42 1013.26 1013.14 1013.02 1012.94 1012.82 1012.70 1012.54 1012.34 1012.14 1011.94 1011.74 1011.50 1011.18 1010.82 1010.46 1010.14 1009.86 1009.66 1009.46 1009.26 1009.02 1008.82 1008.58 1008.42 1008.22 1007.98 1007.78 1007.54 1007.34
1018.38 1018.34 1018.26 1018.18 1018.14 1018.10 1018.02 1017.98 1017.86 1017.78 1017.66 1017.54 1017.42 1017.34 1017.26 1017.14 1017.02 1016.94 1016.78 1016.66 1016.50 1016.30 1016.10 1015.90 1015.70 1015.54 1015.38 1015.22 1015.10 1014.94 1014.78 1014.62 1014.42 1014.26 1014.14 1013.98 1013.82 1013.58 1013.38 1013.18 1013.06 1012.98 1012.86 1012.78 1012.70 1012.54 1012.42 1012.26 1012.02 1011.82 1011.62 1011.34 1010.98 1010.66 1010.30 1010.06 1009.82 1009.58 1009.34 1009.10 1008.86 1008.58 1008.38 1008.18 1007.98 1007.78 1007.54 1007.38 1007.14
1018.42 1018.38 1018.26 1018.22 1018.14 1018.10 1018.02 1017.98 1017.82 1017.74 1017.62 1017.50 1017.42 1017.26 1017.18 1017.06 1016.98 1016.86 1016.70 1016.58 1016.38 1016.14 1015.98 1015.78 1015.62 1015.42 1015.26 1015.14 1014.98 1014.86 1014.70 1014.54 1014.34 1014.14 1013.98 1013.82 1013.70 1013.50 1013.26 1013.02 1012.90 1012.82 1012.70 1012.62 1012.54 1012.42 1012.30 1012.14 1011.94 1011.70 1011.50 1011.18 1010.86 1010.54 1010.26 1010.02 1009.78 1009.54 1009.26 1008.98 1008.70 1008.42 1008.22 1007.98 1007.78 1007.54 1007.34 1007.14 1006.98
1018.42 1018.38 1018.34 1018.26 1018.18 1018.10 1018.02 1017.94 1017.82 1017.70 1017.58 1017.50 1017.38 1017.26 1017.14 1017.02 1016.86 1016.74 1016.62 1016.46 1016.26 1016.02 1015.82 1015.66 1015.50 1015.30 1015.14 1015.02 1014.90 1014.74 1014.62 1014.46 1014.26 1014.06 1013.86 1013.70 1013.54 1013.38 1013.14 1012.94 1012.74 1012.66 1012.58 1012.50 1012.42 1012.26 1012.14 1011.98 1011.82 1011.62 1011.38 1011.06 1010.74 1010.46 1010.22 1009.98 1009.70 1009.42 1009.18 1008.86 1008.54 1008.26 1008.06 1007.86 1007.58 1007.30 1007.14 1007.02 1006.98
1018.42 1018.42 1018.38 1018.30 1018.22 1018.14 1017.98 1017.90 1017.82 1017.70 1017.58 1017.50 1017.38 1017.26 1017.14 1016.98 1016.86 1016.70 1016.54 1016.42 1016.22 1015.98 1015.78 1015.54 1015.38 1015.22 1015.10 1014.94 1014.78 1014.58 1014.42 1014.26 1014.14 1013.98 1013.78 1013.54 1013.42 1013.26 1013.10 1012.86 1012.62 1012.50 1012.42 1012.34 1012.26 1012.14 1011.98 1011.86 1011.70 1011.50 1011.26 1010.98 1010.70 1010.46 1010.22 1009.98 1009.66 1009.38 1009.06 1008.74 1008.42 1008.14 1007.86 1007.66 1007.42 1007.18 1007.02 1006.98 1006.90
1018.42 1018.42 1018.38 1018.30 1018.22 1018.14 1018.02 1017.90 1017.78 1017.70 1017.58 1017.50 1017.38 1017.26 1017.14 1016.98 1016.82 1016.62 1016.42 1016.30 1016.14 1015.94 1015.70 1015.50 1015.26 1015.14 1014.98 1014.86 1014.66 1014.46 1014.26 1014.10 1013.98 1013.82 1013.62 1013.42 1013.26 1013.14 1012.98 1012.78 1012.54 1012.34 1012.26 1012.18 1012.10 1011.98 1011.82 1011.70 1011.54 1011.38 1011.14 1010.90 1010.70 1010.46 1010.22 1009.94 1009.62 1009.26 1008.94 1008.62 1008.34 1007.98 1007.70 1007.46 1007.26 1007.18 1007.10 1006.94 1006.70
1018.42 1018.42 1018.38 1018.30 1018.22 1018.14 1018.02 1017.90 1017.82 1017.70 1017.58 1017.50 1017.38 1017.26 1017.10 1016.90 1016.70 1016.54 1016.34 1016.18 1015.98 1015.82 1015.62 1015.42 1015.18 1014.98 1014.86 1014.78 1014.58 1014.34 1014.14 1013.90 1013.74 1013.58 1013.46 1013.26 1013.14 1012.98 1012.86 1012.62 1012.38 1012.18 1012.10 1012.02 1011.90 1011.82 1011.70 1011.54 1011.42 1011.26 1011.06 1010.86 1010.66 1010.42 1010.18 1009.90 1009.54 1009.14 1008.82 1008.54 1008.22 1007.90 1007.58 1007.34 1007.26 1007.14 1006.98 1006.70 1006.38
Wind_Speed
5 5 4 4 3 3 3 3 3 3 3 3 4 4 4 4 4 4 3 4 3 3 3 3 3 4 5 6 7 7 7 7 8 8 8 8 8 8 9 9 9 9 9 9 9 9 8 9 8 6 5 5 6 6 6 6 7 8 8 9 8 9 10 10 10 11 12 12 10
6 5 5 4 3 3 3 3 3 3 3 3 3 3 4 3 3 3 3 3 3 3 3 3 4 4 5 7 7 7 7 7 8 8 8 8 8 8 9 8 9 9 9 9 9 8 8 9 8 6 5 5 6 6 6 6 7 8 9 10 9 8 8 9 9 10 11 11 10
5 5 4 4 4 3 3 3 3 3 4 3 3 3 3 3 3 3 3 3 3 3 3 3 4 5 6 7 6 6 7 7 8 8 8 8 8 9 9 9 9 9 9 9 9 8 8 9 7 6 5 5 6 7 7 7 8 8 9 10 8 7 7 7 8 9 9 8 9
5 5 5 5 5 5 4 3 3 4 4 3 3 3 3 3 3 3 3 3 3 3 3 4 4 4 5 6 7 7 7 7 8 8 8 8 8 9 9 9 9 9 9 9 9 9 9 9 7 6 6 7 7 7 7 7 8 8 8 8 7 7 7 7 8 8 7 8 9
5 5 5 5 5 5 4 4 4 4 3 3 2 2 2 2 2 2 2 2 3 3 4 4 4 4 5 6 7 7 7 7 7 7 7 8 8 9 9 10 10 9 9 9 9 9 9 10 7 6 6 6 6 6 7 8 9 8 8 7 7 7 7 7 7 7 7 8 8
5 5 5 5 5 4 4 4 4 3 3 3 3 3 3 2 2 2 3 3 3 4 4 5 5 5 6 7 7 7 7 7 7 7 8 8 8 9 9 10 10 9 9 9 10 10 9 9 6 5 5 6 6 7 8 9 9 9 8 8 7 7 7 8 7 7 8 9 10
5 5 5 5 5 4 4 3 3 3 3 3 3 4 4 3 3 3 3 3 3 4 4 4 5 6 6 7 7 7 7 7 7 7 8 8 8 9 9 10 10 10 10 10 10 10 9 8 6 6 6 6 6 7 9 9 9 9 9 9 8 7 8 9 8 8 9 12 13
5 5 5 5 4 4 4 3 3 3 3 3 3 4 4 4 4 4 4 4 4 4 4 4 5 6 6 6 7 7 7 8 8 8 8 8 9 9 10 10 10 10 10 10 10 10 9 8 6 6 6 6 6 7 9 10 11 11 11 11 9 8 8 8 8 9 10 13 14
4 4 4 4 4 4 3 3 3 3 3 3 3 4 4 4 4 4 4 4 4 4 4 4 6 6 7 7 7 7 7 7 8 8 8 8 9 9 9 9 10 10 10 9 10 10 10 8 6 6 6 6 7 8 9 11 12 12 12 11 10 10 9 9 10 11 12 13 14
4 4 3 3 3 3 3 2 3 3 3 4 4 4 4 4 4 4 4 3 3 4 4 5 6 6 7 7 7 7 7 7 7 8 8 8 9 9 9 9 10 10 10 9 9 10 9 8 7 8 8 8 9 10 11 11 12 13 12 9 10 12 12 12 12 13 13 13 14
4 3 3 3 3 2 2 2 2 3 3 3 3 3 3 3 4 4 4 3 4 4 5 5 6 6 6 6 6 7 7 7 7 8 8 8 9 9 9 9 10 10 10 10 9 9 8 8 8 10 10 10 11 11 11 12 13 13 13 11 12 13 14 14 13 13 13 13 14
4 3 3 2 2 1 1 1 2 2 3 3 3 3 3 3 4 4 4 4 5 5 5 5 6 6 6 6 6 7 7 7 8 8 8 8 9 9 9 10 10 10 10 10 9 8 8 8 10 11 12 12 10 10 11 13 13 14 14 14 14 14 14 15 14 13 12 13 14
3 3 2 2 1 1 1 1 2 2 2 3 3 3 3 3 4 4 4 5 5 5 5 5 5 5 5 6 6 7 7 7 8 8 8 8 9 9 10 10 10 10 10 10 9 9 9 9 11 12 13 13 11 11 12 13 14 14 14 15 15 15 15 16 15 15 14 15 15
3 3 2 2 1 1 1 1 1 2 2 3 3 3 3 3 4 4 5 5 5 5 5 5 5 5 5 6 6 7 7 8 8 8 9 9 9 9 10 10 10 10 10 9 10 10 11 11 11 12 13 14 13 13 13 14 14 14 14 15 16 16 16 16 16 16 16 16 16
3 3 2 2 2 1 1 1 1 2 2 3 3 3 3 3 4 4 5 5 5 5 5 5 5 5 6 6 7 7 8 8 8 9 9 9 9 10 10 10 11 11 10 10 10 11 11 12 12 13 13 14 14 14 14 14 14 14 15 15 16 16 16 16 16 16 16 16 16
3 3 2 2 2 2 2 2 2 2 3 3 3 3 3 3 4 4 4 5 5 5 5 5 6 6 6 6 7 7 8 8 8 9 9 9 10 10 10 11 11 11 11 12 11 11 11 12 12 12 13 14 14 15 15 15 15 15 15 16 16 16 17 17 17 17 17 17 17
3 3 3 2 2 2 2 2 2 2 3 3 3 3 3 4 4 4 4 5 5 5 6 6 6 6 6 7 7 7 7 8 8 8 9 9 10 11 11 11 11 11 12 12 12 12 12 12 12 12 13 14 14 15 15 16 15 16 16 16 17 17 17 17 17 17 17 17 17
3 3 3 3 3 3 3 3 3 3 3 3 3 3 3 4 4 4 4 5 5 6 7 7 7 7 7 7 7 7 7 7 8 8 9 10 10 11 11 11 11 11 12 12 12 13 13 13 13 13 13 14 14 15 15 16 16 16 17 17 17 17 17 17 17 17 16 17 17
3 3 3 3 3 3 3 3 3 3 3 3 3 3 3 4 4 4 5 5 6 6 7 8 7 7 7 8 7 7 7 7 8 9 9 10 10 11 11 11 11 12 12 12 12 12 13 13 14 14 14 14 15 15 15 16 16 16 17 17 17 17 17 17 17 17 16 17 17
3 2 2 3 3 3 3 3 3 3 3 2 3 3 3 4 4 5 5 6 6 7 7 8 8 8 8 8 8 8 8 7 8 9 10 10 10 11 11 11 12 12 12 12 12 12 13 13 14 15 15 16 16 16 17 17 16 17 17 16 16 17 17 17 17 17 17 17 17
2 2 2 2 3 3 3 3 3 3 3 3 3 3 4 4 4 5 5 6 6 7 7 8 8 8 8 8 9 9 8 7 8 9 9 10 10 10 11 11 11 11 11 11 11 12 13 13 14 15 16 16 16 17 17 16 17 17 17 16 16 17 17 17 17 17 17 17 17
2 2 2 2 2 3 3 3 3 3 3 3 3 3 4 4 5 5 6 6 7 7 7 8 8 8 8 9 9 9 8 8 8 9 9 9 10 10 10 10 11 11 11 11 11 12 13 14 15 15 16 16 17 17 17 17 17 17 17 17 18 18 18 18 17 17 17 17 17
2 2 2 2 2 3 3 3 3 3 3 3 4 4 4 5 5 6 6 6 7 7 7 8 8 8 8 9 9 9 9 9 9 9 9 9 10 10 10 10 11 11 11 10 10 11 12 13 14 15 16 16 17 17 17 17 17 17 17 18 18 18 18 17 17 17 16 16 16
2 2 2 2 2 3 3 3 3 3 4 4 4 4 5 5 6 6 6 7 7 7 7 7 7 8 9 9 9 9 9 10 10 10 10 10 10 11 11 10 10 10 10 8 9 11 12 12 13 14 15 15 16 16 17 17 17 17 17 18 18 18 17 17 17 16 16 17 16
2 2 2 2 3 3 3 3 4 4 4 4 4 5 5 6 6 6 7 7 7 8 8 8 8 8 8 8 8 9 9 10 10 10 11 11 11 11 10 10 10 9 8 8 11 15 16 16 15 14 14 14 15 16 16 16 17 17 17 17 17 17 17 17 17 16 16 16 16
2 2 2 3 3 3 3 4 4 4 4 4 5 5 6 6 6 7 7 8 8 8 8 8 8 8 8 8 8 9 9 9 9 10 11 11 11 11 11 9 9 8 8 9 14 17 19 20 20 18 16 15 15 15 15 15 16 17 17 17 17 16 16 16 16 16 16 16 16
2 3 3 3 3 4 4 4 4 4 4 5 5 5 6 6 6 7 8 8 8 8 8 8 8 8 8 8 8 9 9 9 9 10 10 11 11 12 11 10 9 8 9 12 16 19 20 21 22 21 19 16 16 15 15 15 16 16 16 16 15 15 16 16 16 17 16 16 17
3 3 4 4 4 4 4 4 4 4 5 5 5 6 6 7 7 7 8 8 8 8 8 7 7 7 6 7 8 9 10 10 10 10 10 10 11 12 12 11 10 10 12 15 18 19 20 21 22 22 21 19 16 15 15 15 15 15 14 14 14 14 15 15 15 15 16 17 17
3 4 4 4 4 4 4 4 5 5 5 5 6 6 6 7 7 8 8 8 8 8 7 6 6 6 6 7 8 9 10 10 10 9 10 11 11 12 12 12 12 12 14 17 18 19 20 21 22 23 23 22 16 14 12 13 13 13 13 12 12 13 14 14 14 15 15 16 17
3 4 5 5 5 5 5 5 5 5 5 5 6 6 7 7 8 8 8 8 8 8 7 7 7 7 8 9 9 9 9 10 9 10 11 12 12 12 12 13 13 13 14 17 18 19 21 22 22 23 23 23 19 15 13 13 13 13 12 12 13 14 15 15 16 17 17 16 16
4 4 5 5 5 5 5 5 5 5 6 6 6 7 7 7 8 8 8 8 8 8 8 8 9 9 10 10 10 10 10 10 10 10 11 12 13 13 13 14 14 14 14 17 18 20 21 22 22 23 23 23 19 16 13 13 13 13 12 12 14 15 16 15 16 16 17 18 18
4 5 5 6 6 6 5 6 6 6 6 7 7 7 7 8 8 8 8 8 9 9 9 9 10 10 10 10 10 11 11 11 11 11 11 12 13 14 14 14 14 14 14 17 19 20 21 22 23 23 23 23 20 17 15 15 14 13 13 14 15 16 16 15 15 16 18 19 18
5 5 5 6 6 6 6 6 6 6 7 7 7 7 8 8 8 8 8 8 8 9 10 10 10 10 11 11 11 11 11 11 12 12 13 13 13 14 14 14 12 13 14 17 19 20 21 22 22 23 23 24 20 17 15 15 13 12 12 14 15 16 17 17 17 17 18 18 18
5 5 6 6 6 6 6 7 7 7 7 8 8 8 8 8 8 9 8 8 8 9 9 9 10 10 10 10 11 11 12 11 11 12 13 14 14 14 14 13 11 12 15 18 20 21 21 22 22 23 23 23 18 15 15 15 14 13 13 14 15 16 16 17 17 17 18 18 17
5 5 6 6 6 7 7 7 7 8 8 8 8 8 8 8 9 9 9 9 9 9 9 9 9 10 10 10 10 11 12 12 12 13 13 14 14 15 15 14 13 14 17 19 20 20 21 22 22 23 23 21 16 14 14 15 14 14 15 16 16 17 17 17 17 17 17 17 17
5 6 6 7 7 7 7 8 8 8 8 9 9 9 9 9 9 9 9 9 9 10 10 10 10 10 10 11 11 11 12 13 13 13 14 14 14 15 15 15 15 16 17 19 19 20 21 21 22 22 21 18 14 12 12 13 13 14 15 16 17 17 17 17 16 16 16 16 16
5 6 7 7 8 8 8 8 8 9 9 9 9 9 9 9 9 9 9 9 9 10 10 10 11 11 11 11 11 11 12 13 13 14 14 14 14 15 16 16 15 16 17 18 19 20 20 21 22 22 20 16 13 12 12 11 11 12 14 15 16 16 16 15 15 15 16 16 16
6 6 7 7 8 8 8 8 9 9 9 9 9 9 9 9 9 9 9 9 9 10 11 11 11 11 11 12 12 12 13 13 13 14 14 14 14 15 15 16 16 16 16 17 19 19 20 20 21 21 19 15 14 13 12 11 11 12 13 14 14 15 15 14 13 13 14 16 16
6 6 7 7 8 8 9 9 9 9 9 10 9 10 10 9 9 9 9 9 9 10 11 11 11 12 12 12 12 12 13 13 13 14 14 14 14 15 15 16 16 16 16 17 18 19 19 20 20 21 20 16 14 12 11 11 12 13 13 13 13 14 14 14 13 12 13 14 16
6 7 7 7 8 8 9 9 9 9 9 9 10 10 10 10 9 9 9 9 9 10 10 11 12 12 12 12 12 13 13 14 13 13 14 14 14 15 16 16 16 16 16 16 18 18 19 19 20 20 19 15 13 11 10 10 12 13 13 13 13 13 13 13 12 11 11 13 15
6 7 7 7 8 8 9 9 9 9 9 9 10 10 9 9 9 9 9 9 9 10 10 10 11 12 12 12 12 13 14 14 14 14 14 14 14 15 15 15 15 15 15 15 16 18 19 19 19 20 19 15 13 11 10 10 11 13 14 14 13 13 13 13 12 11 11 13 14
Wind_Direction
65 64 63 60 59 59 58 54 45 37 32 29 27 25 25 23 27 28 26 21 16 12 11 11 5 0 357 358 357 355 353 352 352 351 350 350 352 352 350 348 347 346 345 345 343 342 341 339 334 328 323 322 322 323 325 328 327 325 322 320 317 315 314 312 309 310 310 310 309
66 66 66 66 66 66 66 62 54 46 40 35 30 27 25 24 25 25 25 23 17 11 6 4 0 356 354 355 355 353 351 350 349 348 348 349 350 350 349 346 346 345 344 344 343 342 339 336 331 326 321 321 321 322 324 328 325 322 320 320 317 314 312 309 309 309 310 309 309
69 66 65 63 62 62 61 57 54 50 47 44 36 31 29 27 24 22 22 20 15 10 4 1 356 354 352 352 352 351 350 349 347 345 346 346 348 348 347 345 344 343 343 342 342 340 336 332 328 322 319 320 322 322 322 324 324 322 320 319 316 313 309 307 308 309 309 307 308
70 66 62 58 56 56 56 53 51 49 47 44 40 39 37 31 24 20 16 14 14 11 6 1 355 351 350 349 349 348 348 348 345 344 343 344 345 345 345 343 342 341 341 341 339 336 333 330 324 319 317 319 319 320 321 322 323 321 319 317 313 309 307 305 307 307 307 305 305
71 65 61 58 56 55 54 51 49 49 48 41 39 42 42 37 28 18 15 12 13 9 5 360 355 350 348 347 347 347 346 346 344 343 342 342 342 342 342 342 341 340 338 338 336 334 331 328 322 317 316 318 319 318 318 320 320 319 317 313 309 307 305 304 305 305 304 302 302
74 69 64 58 55 55 53 51 50 50 50 45 41 40 40 34 25 19 17 15 13 8 3 358 354 351 348 347 347 346 345 344 343 342 340 339 339 339 340 339 338 337 336 335 334 332 330 328 321 316 315 316 314 314 316 320 319 317 314 309 307 304 303 303 303 302 301 299 299
76 72 68 62 56 53 51 49 51 54 56 52 45 41 38 33 24 21 19 16 12 7 1 355 353 350 348 347 346 345 343 341 340 339 339 337 337 337 337 336 336 335 334 333 332 331 330 326 319 316 316 316 314 316 318 320 317 313 310 307 305 302 301 301 301 299 298 297 298
80 76 72 68 63 58 52 47 47 53 57 54 45 40 36 31 22 19 18 18 13 5 358 353 350 348 345 344 343 342 340 338 337 337 337 335 335 335 335 334 333 333 333 332 330 330 328 323 318 316 317 317 314 315 317 316 313 309 306 304 302 301 299 299 297 296 295 296 297
88 84 81 79 73 67 60 52 49 52 57 57 48 40 33 28 21 17 16 16 7 360 354 353 347 345 343 343 341 339 337 335 334 334 333 332 333 333 333 332 331 330 330 330 329 327 325 320 317 317 318 317 313 313 312 312 308 306 304 302 301 300 299 296 295 295 295 296 296
93 91 89 84 79 75 71 67 59 56 56 55 47 40 34 25 20 18 16 8 355 353 355 354 345 342 341 342 339 336 334 331 330 329 329 329 330 331 330 329 328 328 328 328 327 325 322 318 317 316 316 313 311 309 308 307 306 304 303 300 299 298 297 296 295 296 296 296 296
92 87 82 78 75 74 75 75 65 56 50 48 38 33 30 28 21 17 10 356 349 353 357 352 343 340 339 338 335 333 331 328 326 325 325 326 328 328 327 326 326 325 325 325 324 322 319 316 315 314 313 311 309 308 306 306 305 303 301 298 297 297 296 296 297 297 297 297 297
92 87 81 75 71 68 67 65 63 55 47 41 30 23 21 26 19 12 2 353 353 354 353 347 340 337 335 333 331 329 326 324 323 322 322 324 325 325 325 324 324 324 323 323 322 319 315 314 313 311 310 310 309 307 306 306 304 302 300 298 298 297 297 298 299 299 298 297 297
92 89 85 78 69 61 56 58 58 51 43 35 25 17 15 20 17 9 360 356 353 350 344 340 335 332 330 328 326 324 321 320 319 319 320 321 323 323 324 324 323 323 322 321 319 316 313 311 310 310 310 310 308 306 305 305 303 301 300 299 299 299 299 299 300 299 299 298 297
91 85 77 70 59 50 44 45 45 43 37 30 22 14 10 15 15 7 360 356 349 342 337 334 331 328 326 323 320 319 317 315 315 317 318 321 322 323 323 322 322 321 320 319 317 315 312 310 310 309 309 308 306 305 304 302 301 300 299 299 300 300 299 300 300 300 300 299 298
89 79 68 56 44 36 29 27 29 28 27 26 19 11 6 11 12 6 357 351 342 336 333 331 328 324 321 318 317 317 315 314 315 317 319 321 323 323 322 321 321 320 319 317 315 313 312 311 310 309 308 307 305 304 303 301 300 299 298 298 299 299 299 300 300 300 300 299 299
86 74 61 48 37 28 21 17 17 19 20 21 16 9 4 5 7 1 353 345 337 333 330 329 324 320 318 316 317 317 315 314 316 318 320 322 322 322 321 319 319 318 318 316 314 312 311 311 310 309 308 306 305 304 302 301 300 299 298 298 298 298 299 299 300 300 300 300 299
81 71 57 44 35 26 20 14 12 13 14 14 11 9 5 3 359 353 346 340 333 329 326 324 320 317 316 317 319 317 316 315 318 319 320 321 320 319 318 317 317 316 315 314 313 312 311 312 311 309 308 306 304 303 302 301 300 300 299 299 298 298 298 299 299 300 300 300 300
79 67 53 41 31 23 18 12 7 5 4 5 8 8 4 359 350 343 337 333 328 325 322 319 316 315 315 317 317 316 316 316 317 317 318 318 317 316 315 315 314 314 313 312 311 311 311 312 312 311 309 306 304 303 302 302 301 300 300 299 299 298 298 298 299 300 300 301 301
74 61 48 34 23 15 11 4 357 353 354 359 4 2 358 350 341 334 329 327 325 321 318 315 313 312 313 315 315 314 314 314 314 315 315 314 314 313 313 313 313 312 311 310 310 311 312 313 313 312 310 308 306 305 303 302 302 301 301 300 299 299 299 299 299 300 300 301 301
67 53 39 24 12 5 359 352 343 338 341 351 357 356 348 341 334 329 326 324 321 318 314 311 310 310 312 312 312 313 313 312 312 312 312 312 312 312 312 312 312 311 310 310 310 311 313 314 314 313 311 309 307 306 305 304 302 302 301 300 299 299 299 300 300 301 301 301 301
60 45 29 12 359 353 346 336 327 326 332 346 352 349 342 334 330 327 324 320 317 313 310 308 308 309 310 310 310 310 310 309 309 309 309 309 310 311 311 312 311 311 310 310 312 314 316 316 315 314 312 309 308 307 306 305 304 303 302 301 300 300 301 301 301 302 302 302 302
51 32 15 359 349 340 331 320 315 318 328 343 347 343 337 331 328 324 320 315 312 309 308 307 307 308 308 307 306 307 307 306 306 306 307 308 309 310 311 312 311 311 311 313 315 317 318 317 315 314 312 309 308 307 306 305 304 303 302 302 301 302 302 303 303 303 303 303 304
34 14 356 343 336 326 316 309 309 316 329 342 343 339 334 330 325 321 316 312 310 308 308 307 307 306 305 303 302 302 303 304 304 305 307 308 310 312 313 312 312 312 313 316 318 319 318 316 314 313 311 310 308 308 307 306 305 304 303 303 303 303 303 304 304 304 304 305 305
8 349 335 327 318 312 306 304 310 321 332 342 340 337 332 328 323 319 314 311 308 307 306 304 303 302 301 299 299 300 302 304 306 307 309 311 312 314 315 314 313 314 315 317 318 318 317 315 314 313 311 310 309 308 307 306 305 304 304 304 304 304 304 304 305 305 305 306 306
338 324 318 314 309 305 303 306 315 326 334 339 336 333 329 325 321 317 312 309 307 306 304 301 300 299 298 297 298 300 302 304 307 309 311 313 314 316 316 315 315 315 315 314 314 314 313 313 312 312 311 311 309 308 307 305 305 304 304 304 304 304 304 304 305 305 306 307 307
314 311 311 310 303 302 305 311 319 326 331 334 332 329 326 322 317 313 309 307 306 306 304 301 300 299 298 298 300 302 304 305 308 310 312 313 315 317 316 315 315 314 313 312 313 313 313 312 311 311 311 310 309 309 307 305 305 304 304 303 303 303 304 305 307 307 308 308 308
310 310 309 305 301 303 307 314 319 325 329 331 329 325 322 318 312 309 306 305 305 305 303 301 301 300 300 298 302 305 307 308 309 310 311 313 314 315 315 314 313 312 312 313 313 312 312 312 312 312 312 311 310 309 307 306 305 304 303 302 302 303 304 306 307 308 309 309 308
316 312 307 302 302 305 310 314 320 325 328 328 325 320 316 312 308 305 304 304 305 304 302 302 302 302 301 301 305 307 308 309 310 310 311 312 313 313 313 313 313 312 312 312 311 311 312 312 313 314 314 313 311 308 306 304 304 303 303 302 303 304 305 306 308 309 309 309 309
314 309 306 304 305 307 311 317 322 325 325 322 319 315 311 308 305 304 304 305 305 304 304 304 304 304 303 305 307 308 309 310 311 311 311 311 311 312 312 312 311 311 310 310 310 311 312 313 314 314 314 315 312 310 307 305 304 303 303 303 304 306 307 309 309 309 309 308 308
312 309 306 305 307 309 313 319 321 322 320 317 314 310 308 306 305 305 306 306 305 304 303 303 303 303 304 305 307 308 310 312 312 312 312 311 311 312 312 311 311 309 309 310 310 311 313 314 314 314 314 315 313 310 306 304 303 303 303 303 304 307 308 309 309 308 307 307 307
311 308 306 305 307 310 314 318 318 318 316 313 311 308 306 306 306 306 306 306 304 303 302 301 301 302 303 305 307 309 311 312 312 311 311 311 311 311 311 310 309 308 308 310 311 312 313 314 314 314 315 316 315 312 307 304 303 303 303 305 307 309 310 309 307 306 306 306 306
307 306 305 306 308 312 315 318 317 316 314 311 309 307 306 305 306 306 306 305 304 304 304 304 304 305 307 309 310 311 312 312 311 311 311 311 310 310 309 309 308 308 309 311 312 313 314 314 315 315 316 317 315 311 307 304 303 303 304 306 308 309 309 307 305 305 305 305 305
306 305 305 307 310 313 316 317 316 315 313 310 308 307 306 306 306 306 305 304 305 305 306 307 308 309 310 311 312 312 311 310 310 310 309 309 309 309 308 308 307 308 310 312 313 313 314 315 315 316 316 318 314 311 307 305 305 306 307 308 309 308 306 305 304 304 304 304 303
309 308 309 310 312 314 315 316 315 314 311 309 308 307 308 307 307 306 305 305 305 305 305 305 307 307 308 309 310 310 310 309 308 308 308 308 308 308 308 307 307 309 311 312 313 314 315 315 316 317 317 317 314 310 308 308 308 309 309 308 307 306 305 304 303 303 302 302 301
313 313 314 315 315 315 315 315 314 312 310 309 309 309 309 308 308 307 306 305 304 302 302 303 304 305 305 306 307 307 308 307 307 307 307 308 307 307 307 307 307 309 311 312 313 314 315 315 316 317 317 316 312 310 309 311 311 311 310 309 307 305 304 304 303 302 301 300 299
318 318 318 317 316 315 314 313 312 311 310 310 310 311 310 309 308 306 305 304 303 302 303 305 306 307 307 308 308 307 307 307 307 306 306 307 307 307 307 307 308 310 312 313 313 314 315 315 316 317 317 315 312 311 312 313 312 311 310 308 307 306 306 305 303 302 300 299 301
323 321 319 316 314 313 312 312 311 310 310 310 310 311 310 309 307 305 305 305 304 305 306 308 308 309 309 310 309 307 306 305 305 305 306 306 306 307 307 308 309 310 311 312 313 314 314 315 316 316 317 314 313 314 314 313 311 310 308 307 306 306 306 304 303 301 301 302 305
325 322 317 313 311 310 310 309 308 308 309 309 309 309 308 307 305 305 305 306 306 307 308 308 308 308 308 309 306 305 304 304 304 304 305 305 306 307 307 307 308 309 310 311 312 313 314 315 315 316 317 315 316 316 315 313 311 309 308 307 306 306 306 304 303 303 304 307 308
323 318 313 309 307 307 306 306 306 307 307 308 307 307 306 305 303 304 305 305 305 306 306 306 306 307 307 307 305 304 304 303 303 303 304 305 305 306 306 306 306 307 308 310 311 312 313 314 315 316 317 316 317 316 314 312 310 309 307 306 306 306 305 305 305 307 308 310 307
317 312 308 305 304 304 303 304 304 305 305 305 304 304 303 302 301 302 303 303 303 304 304 303 304 305 306 306 305 303 303 303 303 303 303 304 305 306 305 304 304 305 307 309 310 312 313 315 316 317 318 317 318 316 314 311 309 308 307 307 307 306 306 307 309 309 309 306 302
312 308 305 302 301 301 301 301 302 302 302 302 300 300 299 298 299 301 303 303 304 304 303 302 304 305 306 306 303 302 302 303 303 304 304 305 305 305 305 304 304 305 306 308 310 312 313 315 316 317 319 319 319 317 314 310 308 308 308 308 308 308 309 310 311 308 304 302 301